Hourly Weather Kitowiny

Today, 30 July, Friday

Time Temperature Precipitation Wind Pressure Humidity
00:00 +18°C° 0 mm 2 mps 739 mmHg 73%
01:00 +18°C° 0 mm 2 mps 739 mmHg 73%
02:00 +18°C° 0 mm 2 mps 739 mmHg 73%
03:00 +17°C° 0 mm 2 mps 739 mmHg 74%
04:00 +17°C° 0 mm 2 mps 739 mmHg 74%
05:00 +18°C° 0 mm 2 mps 739 mmHg 70%
06:00 +20°C° 0 mm 3 mps 739 mmHg 65%
07:00 +21°C° 0 mm 3 mps 739 mmHg 61%
08:00 +24°C° 0 mm 3 mps 739 mmHg 55%
09:00 +25°C° 0 mm 4 mps 739 mmHg 50%
10:00 +26°C° 0 mm 5 mps 739 mmHg 44%
11:00 +27°C° 0 mm 5 mps 739 mmHg 42%
12:00 +28°C° 0 mm 5 mps 738 mmHg 39%
13:00 +29°C° 0 mm 6 mps 738 mmHg 37%
14:00 +29°C° 0 mm 5 mps 738 mmHg 37%
15:00 +29°C° 0 mm 5 mps 738 mmHg 38%
16:00 +29°C° 0 mm 5 mps 737 mmHg 38%
17:00 +27°C° 0 mm 4 mps 737 mmHg 45%
18:00 +26°C° 0 mm 2 mps 737 mmHg 52%
19:00 +24°C° 0 mm 1 mps 737 mmHg 58%
20:00 +23°C° 0 mm 1 mps 737 mmHg 61%
21:00 +22°C° 0 mm 1 mps 737 mmHg 63%
22:00 +21°C° 0 mm 1 mps 737 mmHg 65%
23:00 +21°C° 0 mm 1 mps 737 mmHg 65%

Tomorrow, 31 July, Saturday

Time Temperature Precipitation Wind Pressure Humidity
00:00 +20°C° 0 mm 1 mps 737 mmHg 66%
01:00 +20°C° 0 mm 1 mps 737 mmHg 66%
02:00 +20°C° 0 mm 1 mps 737 mmHg 67%
03:00 +20°C° 0 mm 1 mps 737 mmHg 68%
04:00 +19°C° 0 mm 1 mps 736 mmHg 69%
05:00 +21°C° 0 mm 1 mps 737 mmHg 67%
06:00 +23°C° 0 mm 1 mps 737 mmHg 64%
07:00 +24°C° 0 mm 1 mps 737 mmHg 61%
08:00 +26°C° 0 mm 1 mps 737 mmHg 57%
09:00 +28°C° 0 mm 1 mps 736 mmHg 53%
10:00 +29°C° 0 mm 2 mps 736 mmHg 48%
11:00 +30°C° 0 mm 2 mps 736 mmHg 47%
12:00 +30°C° 0 mm 3 mps 735 mmHg 45%
13:00 +32°C° 0 mm 4 mps 735 mmHg 44%
14:00 +27°C° 5 mm 5 mps 735 mmHg 60%
15:00 +23°C° 5 mm 5 mps 736 mmHg 76%
16:00 +19°C° 5 mm 6 mps 736 mmHg 92%
17:00 +19°C° 0.7 mm 5 mps 736 mmHg 93%
18:00 +19°C° 0.7 mm 3 mps 736 mmHg 93%
19:00 +19°C° 0.7 mm 2 mps 737 mmHg 93%
20:00 +18°C° 0 mm 2 mps 737 mmHg 94%
21:00 +18°C° 0 mm 2 mps 737 mmHg 94%
22:00 +17°C° 0 mm 2 mps 737 mmHg 95%
23:00 +17°C° 0 mm 2 mps 737 mmHg 95%

Day after tomorrow, 1 August, Sunday

Time Temperature Precipitation Wind Pressure Humidity
00:00 +17°C° 0 mm 2 mps 737 mmHg 94%
01:00 +17°C° 0 mm 2 mps 737 mmHg 94%
02:00 +17°C° 0 mm 2 mps 737 mmHg 94%
03:00 +16°C° 0 mm 2 mps 737 mmHg 94%
04:00 +16°C° 0 mm 2 mps 737 mmHg 95%
05:00 +18°C° 0 mm 2 mps 737 mmHg 89%
06:00 +20°C° 0 mm 1 mps 737 mmHg 83%
07:00 +22°C° 0 mm 1 mps 737 mmHg 77%
08:00 +23°C° 0 mm 1 mps 737 mmHg 70%
09:00 +24°C° 0 mm 1 mps 737 mmHg 63%
10:00 +26°C° 0 mm 2 mps 737 mmHg 56%
11:00 +26°C° 0 mm 2 mps 736 mmHg 54%
12:00 +27°C° 0 mm 3 mps 736 mmHg 51%
13:00 +28°C° 0 mm 3 mps 736 mmHg 49%
14:00 +28°C° 0.2 mm 3 mps 735 mmHg 52%
15:00 +27°C° 0.2 mm 2 mps 735 mmHg 56%
16:00 +27°C° 0.2 mm 2 mps 735 mmHg 60%
17:00 +24°C° 4 mm 3 mps 735 mmHg 71%
18:00 +20°C° 4 mm 4 mps 734 mmHg 83%
19:00 +17°C° 4 mm 5 mps 734 mmHg 94%
20:00 +17°C° 0.1 mm 4 mps 735 mmHg 94%
21:00 +16°C° 0.1 mm 3 mps 735 mmHg 94%
22:00 +16°C° 0.1 mm 2 mps 736 mmHg 94%
23:00 +16°C° 0.1 mm 2 mps 736 mmHg 94%

2 August, Monday

Time Temperature Precipitation Wind Pressure Humidity
00:00 +14°C° 0.1 mm 3 mps 736 mmHg 94%
01:00 +14°C° 0.1 mm 4 mps 736 mmHg 94%
02:00 +14°C° 0.2 mm 4 mps 736 mmHg 94%
03:00 +14°C° 0.2 mm 4 mps 736 mmHg 94%
04:00 +14°C° 0.2 mm 4 mps 736 mmHg 95%
05:00 +14°C° 0.8 mm 4 mps 737 mmHg 95%
06:00 +14°C° 0.8 mm 3 mps 737 mmHg 95%
07:00 +14°C° 0.8 mm 3 mps 737 mmHg 95%
08:00 +17°C° 0 mm 3 mps 738 mmHg 86%
09:00 +19°C° 0 mm 4 mps 738 mmHg 78%
10:00 +20°C° 0 mm 4 mps 738 mmHg 69%
11:00 +21°C° 0.1 mm 4 mps 738 mmHg 63%
12:00 +23°C° 0.1 mm 5 mps 738 mmHg 56%
13:00 +25°C° 0.1 mm 5 mps 738 mmHg 50%
14:00 +23°C° 0 mm 4 mps 738 mmHg 54%
15:00 +22°C° 0 mm 4 mps 738 mmHg 59%
16:00 +22°C° 0 mm 3 mps 739 mmHg 63%
17:00 +21°C° 0 mm 3 mps 739 mmHg 65%
18:00 +20°C° 0 mm 2 mps 739 mmHg 68%
19:00 +19°C° 0 mm 2 mps 739 mmHg 70%
20:00 +18°C° 0 mm 2 mps 739 mmHg 73%
21:00 +18°C° 0 mm 2 mps 739 mmHg 76%
22:00 +17°C° 0 mm 2 mps 740 mmHg 79%
23:00 +16°C° 0.1 mm 2 mps 740 mmHg 82%

3 August, Tuesday

Time Temperature Precipitation Wind Pressure Humidity
00:00 +15°C° 0.1 mm 2 mps 740 mmHg 86%
01:00 +15°C° 0.1 mm 2 mps 740 mmHg 89%
02:00 +14°C° 0 mm 2 mps 741 mmHg 89%
03:00 +14°C° 0 mm 2 mps 741 mmHg 89%
04:00 +14°C° 0 mm 2 mps 741 mmHg 89%
05:00 +14°C° 0 mm 3 mps 741 mmHg 83%
06:00 +17°C° 0 mm 3 mps 742 mmHg 76%
07:00 +18°C° 0 mm 4 mps 742 mmHg 70%
08:00 +19°C° 0 mm 4 mps 742 mmHg 62%
09:00 +21°C° 0 mm 4 mps 742 mmHg 54%
10:00 +22°C° 0 mm 4 mps 742 mmHg 46%
11:00 +23°C° 0 mm 4 mps 742 mmHg 44%
12:00 +23°C° 0 mm 4 mps 742 mmHg 42%
13:00 +25°C° 0 mm 4 mps 742 mmHg 40%
14:00 +25°C° 0 mm 4 mps 742 mmHg 40%
15:00 +25°C° 0 mm 3 mps 742 mmHg 40%
16:00 +25°C° 0 mm 3 mps 741 mmHg 41%
17:00 +23°C° 0 mm 2 mps 741 mmHg 47%
18:00 +21°C° 0 mm 2 mps 741 mmHg 54%
19:00 +20°C° 0 mm 1 mps 741 mmHg 61%
20:00 +19°C° 0 mm 1 mps 741 mmHg 62%
21:00 +18°C° 0 mm 1 mps 742 mmHg 63%
22:00 +16°C° 0 mm 1 mps 742 mmHg 64%
23:00 +16°C° 0 mm 2 mps 742 mmHg 65%

4 August, Wednesday

Time Temperature Precipitation Wind Pressure Humidity
00:00 +16°C° 0 mm 2 mps 742 mmHg 65%
01:00 +15°C° 0 mm 2 mps 741 mmHg 66%
02:00 +15°C° 0 mm 2 mps 741 mmHg 67%
03:00 +15°C° 0 mm 2 mps 741 mmHg 69%
04:00 +15°C° 0 mm 2 mps 741 mmHg 71%
05:00 +16°C° 0 mm 2 mps 741 mmHg 69%
06:00 +17°C° 0 mm 2 mps 741 mmHg 68%
07:00 +19°C° 0 mm 3 mps 741 mmHg 66%
08:00 +20°C° 0 mm 3 mps 741 mmHg 64%
09:00 +21°C° 0 mm 3 mps 741 mmHg 62%
10:00 +22°C° 0 mm 4 mps 741 mmHg 61%
11:00 +21°C° 0.6 mm 3 mps 741 mmHg 69%
12:00 +20°C° 0.6 mm 2 mps 741 mmHg 78%
13:00 +19°C° 0.6 mm 2 mps 741 mmHg 86%
14:00 +19°C° 0.7 mm 2 mps 741 mmHg 88%
15:00 +19°C° 0.7 mm 2 mps 741 mmHg 89%
16:00 +19°C° 0.7 mm 2 mps 740 mmHg 90%
17:00 +18°C° 0.2 mm 2 mps 740 mmHg 91%
18:00 +18°C° 0.2 mm 2 mps 740 mmHg 93%
19:00 +18°C° 0.2 mm 2 mps 740 mmHg 94%
20:00 +17°C° 0 mm 2 mps 740 mmHg 94%
21:00 +17°C° 0 mm 2 mps 740 mmHg 94%
22:00 +18°C° 0 mm 1 mps 740 mmHg 94%
23:00 +17°C° 0 mm 2 mps 740 mmHg 94%
Show more